FREGAT DEB, 45638

Orbit data source: Space-Track

FREGAT DEB, 45638 is space debris in LEO originally from a launch on Mon, 18 Jul 2011 UTC launched from the Tyuratam Missile And Space Complex (TTMTR). Debris objects in space refer to the collection of defunct objects orbiting the Earth. Examples of debris include non-operational satellites, rocket bodies, and fragments generated from explosions, collisions, or faulty payload assembly.

Loading next visibility...
Identifier
45638, 2011-037AE
Orbit
LEO
Country
Flag of CISCIS
Related business
Manufacturer
Lavochkin
Mission
Spacecraft
Bus & Motor
Unknown
Mass
Unknown
Launch date (UTC)
2011-07-18 (14 years ago)
Launch vehicle
Unknown
Launch site
Tyuratam Missile And Space Complex (TTMTR)
Object type
Payload
Rocket body
Debris
Shape & HBR
Unknown
Radar Cross Section
Small (<0.1 m²)

Expand to show TLE details & history
Last TLE update: 9 hours ago

TLE from 9 hours ago
0 FREGAT DEB
1 45638U 11037AE  25258.27694865  .00173966  00000-0  11864-1 0  9990
2 45638  51.4082 354.9054 1260196 190.6700 166.4928 12.83681001229577
Epoch: 2025-09-15T06:38Z
TLE epoch observation values (Epoch: 2025-09-15T06:38:48.363Z)
Latitude
-0°
Longitude
-99.28003°
Altitude
2,277.017 km
Speed
6.357 km/s
True Right ascension
23h 39m 37s
True Declination
0° 00' 00"
Sunlit
Object was in full shadow at epoch
Visualization orbit readout
Latitude
Unknown
Longitude
Unknown
Altitude
Unknown
Speed
Unknown
Apparent Right ascension
Unknown
Apparent Declination
Unknown
Sunlit
N/A
Visualization observer readout
Local Sidereal Time
07:48:03
Azimuth
Unknown
Elevation
Unknown
Doppler factor
Unknown
Orbital elements
Apogee altitude
2,298.223 km
Perigee altitude
356.176 km
Semi-major axis
7,705.337 km
Eccentricity
0.12602
Inclination
51.4082°
RAAN
354.9054°
Arg. of periapsis
190.67°
True anomaly
169.41459°
Mean anomaly
166.4928°
Eccentric anomaly
167.99466°
Mean motion
3.2089 °/min
Orbital period
112.19 mins
BSTAR
0.011864
Loading maneuver chart data...
Computing Atmospheric mass density...
Loading historical data...
Loading historical data...
Loading historical data...
Loading historical data...
Loading historical data...
Loading historical data...
Loading historical data...

Documentation

Showing up to 5 results
|